Location: Peterborough
(44.3091°N, 78.3197°W)
Time: 16:18:25
(UTC-04:00)

Transit 2A - Pass Details

Date: 26 March 2023
Orbit: 591 x 964 km, 66.7° (Epoch: 04 June)

Event Time Altitude Azimuth Distance (km) Brightness Sun altitude
Rises 12:10:15 0° 331° (NNW) 3,593 9.0 45.3°
Reaches altitude 10° 12:14:06 10° 355° (N) 2,686 8.5 45.6°
Maximum altitude 12:17:33 15° 28° (NNE) 2,363 8.4 45.8°
Drops below altitude 10° 12:21:02 10° 61° (ENE) 2,706 8.9 46.1°
Sets 12:24:55 0° 84° (E) 3,634 9.6 46.3°
